Japanese version Home page |
Updated on February 21, 2021 |
Profile
|
Orbital ElementsEpoch 2020 May 31.0 TT = JDT 2459000.5 T 2020 May 28.08704 TT Rudenko q 3.4130479 (2000.0) P Q n 0.08872194 Peri. 82.30152 +0.97688393 +0.07979034 a 4.9786932 Node 272.96879 -0.15487036 +0.90364910 e 0.3144691 Incl. 11.45438 +0.14735315 +0.42077525 P 11.1 From 100 observations 2019 May 30-2020 Nov. 11, mean residual 0".4.
|
Magnitudes Graphm1 = 7.0 + 5 log d + 20.0 log r(t - 200)
|
The orbital elements are published on M.P.E.C. 2020-W26.
|